ROMMA est une association bénévole à but non lucratif. Votre soutien est indispensable : ADHERER à ROMMA ou FAIRE un DON

Val-d'Arly - (73, Savoie)

Beaufortain (2050 m)   Longitude: 06° 35' 21" E   Latitude: 45° 46' 53" N Station romma n°118
 

Détail journalier du     <<     >>

Température Precipitation Humidité Vent Dir Rafale Dir. rafale Ensol.
Heure (°C) (mm) (%) (km/h) (km/h) (min)
01:00 18.60466SO10SO0
02:00 18.60476O10O0
03:00 18.20507NO11OSO0
04:00 17.60536ONO10O0
05:00 17.50545ONO11ONO0
06:00 17.50544ONO10ONO0
07:00 17.70555NO6NO10
08:00 18.10556NNE11NNE60
09:00 19.20553SSO8SO60
10:00 18.30563S10NNE60
11:00 19.30437NE15NNE60
12:00 19.90429NE24ENE60
13:00 20.60449NE19NNO60
14:00 21.603510N24ESE60
15:00 22.30338NE23ENE60
16:00 22.503210NE24NE60
17:00 22.703012NE31NNE50
18:00 21.305411NE29NNE40
19:00 20.60569NNE21NNE0
20:00 20.60395NE15SE0
21:00 20.20456ENE15E0
22:00 19.80442ENE5ENE0
23:00 20.10463ENE5ENE0
minuit 19.40505ENE11OSO0

Graphique du 24-07-2019

 

Serveur OMMA